GFSMW_925_spd_216.txt.gz
Wind_Speed
11 21 18 19 20 27 37 41 41 44 38 34 33 31 38 39 39 42 41 38 37 39 42 43 37 38 41 38 36 35 32 26 22 21 16 16 17 21 21 20 21 19 18
8 10 20 22 21 27 38 38 41 40 44 38 40 34 33 34 38 40 40 42 41 40 40 43 44 38 41 39 39 40 32 32 26 13 5 1 6 16 19 20 21 21 20
14 12 10 23 24 24 38 38 41 44 44 36 30 26 25 26 29 33 39 41 41 42 43 44 42 43 41 43 42 42 36 28 26 27 11 2 4 2 12 21 25 25 24
10 13 11 14 28 28 34 39 39 40 39 37 34 35 30 28 34 32 39 42 42 43 42 44 46 44 44 42 37 37 37 30 24 22 23 13 6 4 1 6 10 12 16
11 14 13 23 25 22 29 34 36 37 37 40 39 38 30 30 25 32 34 37 39 40 44 43 42 46 44 46 40 35 37 35 28 29 16 17 10 8 3 3 4 8 12
10 10 5 14 17 24 28 28 28 30 34 38 39 39 33 32 27 30 34 37 38 41 39 42 42 41 43 42 40 36 34 34 34 33 27 19 7 10 6 3 7 9 13
5 7 11 11 21 28 29 28 27 24 24 27 35 38 37 36 36 35 34 34 34 36 36 36 38 38 39 38 37 35 35 35 34 33 28 23 19 13 11 9 5 5 6
7 11 13 13 20 26 26 22 20 19 19 20 23 26 36 36 37 36 35 34 33 34 36 36 36 36 34 30 28 32 32 25 23 22 21 18 19 15 15 11 9 2 6
11 12 13 17 22 27 28 26 23 18 12 13 15 18 24 32 35 33 31 31 30 31 30 32 35 31 28 26 31 30 28 26 23 19 15 14 12 11 13 13 14 8 2
9 10 13 14 19 26 26 23 19 15 13 11 12 14 16 18 21 22 25 25 25 26 26 26 27 27 27 27 26 25 22 19 15 14 13 10 9 10 10 11 12 13 9
15 13 12 17 21 26 24 20 17 15 14 14 15 14 15 15 16 18 21 22 23 24 25 27 29 29 27 27 25 21 17 17 17 13 10 9 9 8 9 10 10 11 12
11 12 12 13 18 20 23 22 18 15 12 13 13 14 16 17 17 18 19 19 19 19 22 24 29 30 28 25 22 20 19 18 15 13 12 13 11 10 11 12 13 13 13
6 7 9 12 13 18 22 22 19 17 17 16 14 14 16 18 20 20 18 17 17 20 23 24 25 25 25 24 20 20 18 16 15 13 13 12 11 11 10 11 13 12 12
11 14 12 12 14 19 21 22 23 22 22 20 20 20 20 21 21 20 19 19 20 23 23 24 23 21 20 18 17 16 15 15 13 12 10 9 9 9 10 13 11 10 12
13 14 15 14 13 17 20 19 23 28 27 24 22 22 21 20 21 21 21 21 22 22 22 21 20 20 19 18 18 17 15 14 12 10 10 10 10 11 13 8 9 12 13
14 17 18 16 16 21 25 23 25 29 31 26 24 23 20 18 19 20 20 22 22 23 24 24 23 21 18 17 16 15 13 11 10 9 8 9 9 9 9 7 11 13 15
8 10 16 16 15 23 28 29 31 30 30 28 28 27 25 25 23 23 23 25 25 23 22 21 19 17 17 14 11 10 9 7 5 3 6 10 11 11 10 11 13 14 16
10 10 9 10 23 26 27 25 29 31 29 28 30 32 32 31 29 26 25 23 21 20 19 18 16 16 15 12 9 5 3 3 3 8 13 15 16 15 13 13 14 16 17
11 11 19 27 27 29 30 27 27 28 28 28 31 35 36 35 33 29 24 23 22 19 17 17 17 17 14 7 4 2 4 6 8 15 19 21 22 20 16 15 17 18 20
8 10 19 24 26 27 30 29 28 29 29 30 31 36 37 38 34 30 25 25 23 22 21 18 14 10 6 8 6 6 9 16 17 22 21 16 15 14 11 13 15 19 21
9 15 17 20 29 33 36 28 26 26 28 32 36 36 34 34 35 33 28 24 24 20 13 7 4 4 5 8 10 13 21 24 20 16 12 9 8 7 9 11 14 17 16
7 16 13 14 21 29 32 24 22 25 33 35 35 34 34 35 35 34 27 22 15 8 5 3 4 5 7 13 18 20 20 17 15 10 7 7 8 9 11 12 14 16 18
8 10 11 15 17 21 26 25 25 35 34 32 31 34 35 33 29 25 20 15 12 11 9 7 8 12 14 19 19 16 11 9 11 11 12 12 15 19 20 18 18 17 18
9 15 17 10 12 22 24 28 31 33 35 32 31 31 30 26 21 18 16 15 13 9 4 8 15 22 20 13 10 8 11 12 12 13 17 20 21 20 20 21 20 21 19
9 14 12 12 17 25 26 28 31 34 30 29 27 26 25 22 19 15 13 9 7 7 13 21 22 16 15 14 12 11 11 12 15 17 19 19 18 17 17 17 18 17 19
15 13 17 22 22 26 27 27 28 33 32 25 22 25 23 18 14 11 9 8 9 10 12 11 11 11 11 11 11 12 14 16 15 18 21 19 18 18 18 18 19 20 21

GFSMW_925_spd_219.txt.gz
Wind_Speed
18 23 32 35 38 34 39 39 40 40 39 37 35 33 41 43 43 45 44 44 43 44 43 42 40 37 37 36 33 32 31 29 27 21 20 22 24 24 24 23 22 20 21
8 9 16 14 28 33 39 39 41 38 43 40 43 31 30 30 36 37 40 42 41 42 44 44 42 42 39 37 37 35 28 31 31 15 4 2 8 20 22 22 23 22 20
12 9 9 22 23 27 35 40 43 44 44 39 30 24 21 22 28 34 38 43 42 41 41 43 43 41 42 39 40 39 34 24 31 28 11 2 5 2 13 23 23 22 22
8 8 9 11 24 33 35 40 41 43 42 36 33 35 32 23 33 32 34 34 41 43 43 42 42 42 41 40 41 41 40 33 25 31 23 13 5 3 1 7 16 21 23
12 11 10 20 32 33 36 40 39 37 36 40 36 35 30 31 24 27 30 34 36 40 43 45 44 43 43 42 42 40 40 41 31 30 19 21 12 9 3 3 4 11 14
10 10 14 19 26 23 29 35 38 38 38 39 39 39 36 31 29 27 32 34 38 39 42 45 45 46 44 44 44 45 42 41 40 37 36 28 13 11 6 3 4 5 8
7 7 8 7 15 21 31 35 37 34 39 39 40 42 40 36 35 33 32 33 34 37 40 43 42 44 44 43 43 42 43 41 39 33 34 35 30 20 18 9 3 5 3
8 9 9 8 15 23 30 34 35 34 38 38 39 39 39 37 35 33 34 35 35 37 38 39 38 39 40 41 39 38 39 37 35 34 35 34 33 21 12 8 8 1 5
13 13 9 11 16 22 31 35 34 34 34 32 31 32 33 35 35 34 33 34 34 33 31 32 32 33 36 34 34 34 32 30 31 33 34 29 27 23 15 19 14 8 3
16 9 9 11 20 24 28 31 31 30 27 25 25 27 27 28 29 29 30 31 33 29 27 28 29 30 32 32 31 29 25 21 22 21 21 20 17 17 15 12 10 10 9
12 9 10 14 18 23 30 30 27 26 24 23 23 22 21 20 19 20 21 24 23 21 21 21 23 26 26 25 24 24 23 21 24 18 17 15 16 14 11 11 10 10 11
8 3 5 9 16 20 25 29 29 28 28 27 24 22 19 18 17 16 15 16 18 18 18 19 21 22 22 25 28 25 24 22 19 18 17 13 11 11 11 10 9 9 10
1 4 5 8 10 16 21 26 28 26 24 22 19 17 15 15 16 15 14 15 15 16 17 18 19 21 24 26 27 27 25 21 19 15 14 13 11 11 10 8 7 9 10
6 5 2 5 9 16 19 26 28 26 25 21 19 17 16 16 15 14 15 15 16 17 18 18 19 21 24 25 23 22 20 17 14 12 10 10 9 7 6 6 7 9 10
7 9 11 10 8 12 17 20 24 30 26 22 22 21 20 19 15 14 14 14 15 16 17 18 19 20 21 21 20 19 17 16 14 10 8 6 5 3 3 5 7 9 11
9 10 11 13 14 19 23 25 25 27 28 23 25 24 25 22 19 18 17 17 17 17 18 19 20 20 18 16 14 14 15 13 12 10 6 3 1 2 3 5 7 10 13
10 10 12 15 16 26 29 29 29 25 27 23 24 28 26 26 24 22 20 18 19 20 20 21 22 21 19 16 16 14 14 13 10 8 5 2 2 4 6 8 11 13 15
10 10 11 13 22 24 24 19 19 20 22 23 24 28 28 27 28 26 24 22 22 22 23 23 23 25 21 18 17 15 14 12 8 4 1 3 5 7 12 15 17 17 17
14 15 17 21 24 28 32 31 27 26 24 24 24 28 31 29 30 30 29 28 27 26 25 25 26 26 22 18 15 12 10 8 5 3 4 6 10 14 17 18 20 21 24
9 12 20 14 19 28 30 28 27 28 27 28 29 30 32 33 32 34 34 31 29 30 30 28 26 24 20 13 8 5 3 1 2 6 11 14 18 19 18 18 19 21 26
12 19 17 16 28 28 30 27 26 30 34 30 32 33 34 35 35 34 33 33 32 32 31 29 21 18 13 10 5 3 1 4 8 11 14 16 17 18 13 12 14 18 19
18 23 10 15 22 25 28 25 26 27 30 34 34 35 35 34 35 36 32 32 34 31 24 20 16 11 8 6 2 2 5 8 11 13 16 15 10 11 13 14 15 16 18
19 23 12 8 13 24 26 20 21 33 37 33 30 32 31 32 34 37 35 31 29 25 18 15 11 6 4 1 2 5 8 11 13 13 11 11 13 15 18 20 18 18 20
16 9 9 8 6 20 23 24 30 30 30 30 29 29 30 29 28 30 31 27 22 19 16 11 6 3 1 2 5 8 10 11 11 12 12 15 18 20 19 18 17 16 16
7 13 10 9 11 19 25 30 33 37 31 31 30 27 28 29 29 26 22 21 16 14 11 6 3 2 5 7 9 8 10 11 10 11 16 17 16 17 18 17 17 16 16
9 11 14 18 20 24 26 27 30 33 34 28 26 30 32 27 26 27 22 14 11 8 5 5 4 5 6 6 9 10 10 10 11 16 18 19 19 19 18 18 19 19 19

GFSMW_925_spd_222.txt.gz
Wind_Speed
13 23 35 41 34 41 35 40 39 40 39 39 37 36 43 42 43 45 45 45 44 42 41 40 38 36 35 35 33 32 31 29 25 18 21 25 23 24 24 24 23 23 21
9 11 22 29 35 44 46 38 44 41 43 41 44 30 31 34 39 40 43 44 43 43 42 42 42 40 39 37 35 34 30 30 29 13 5 2 8 24 27 27 26 25 24
13 11 8 20 26 33 40 43 48 48 46 43 32 29 19 24 28 38 42 46 43 42 42 42 43 43 41 41 41 39 37 24 28 30 12 2 5 2 11 26 28 26 25
10 10 8 11 25 29 32 38 39 43 44 40 36 38 36 26 34 33 35 36 41 41 40 40 41 41 42 40 42 42 40 34 24 23 33 26 6 4 2 10 18 26 25
10 12 11 20 26 25 28 34 39 39 38 43 41 38 31 31 23 30 31 35 36 37 39 40 40 40 41 41 41 39 41 39 30 30 18 29 20 14 4 4 5 15 20
11 11 13 14 19 21 21 31 39 42 42 42 42 41 37 30 30 27 31 32 33 34 35 38 39 41 41 38 38 41 40 41 40 33 33 29 14 15 9 5 3 6 10
10 9 8 7 20 21 22 27 35 36 40 41 41 41 40 37 37 34 31 29 29 30 34 35 38 40 43 41 39 38 38 39 40 39 34 31 30 24 22 13 4 4 8
9 8 8 8 19 23 21 24 32 32 37 40 42 41 40 39 38 36 34 33 32 31 30 30 33 36 38 39 40 40 38 36 39 39 38 36 34 37 32 22 11 2 5
10 10 10 12 22 26 27 28 31 31 35 39 36 39 39 37 36 35 32 30 30 30 29 29 29 30 33 35 36 35 35 36 36 35 35 32 31 32 33 29 20 3 1
8 9 9 9 19 27 27 25 31 35 38 39 40 39 37 35 34 29 28 28 27 27 26 27 26 26 27 30 30 28 28 30 29 31 29 27 29 29 28 23 18 23 14
9 7 8 12 21 18 22 26 30 32 33 37 35 30 30 29 27 25 24 24 24 23 23 24 24 22 23 24 26 28 27 25 26 23 22 22 20 20 22 20 17 15 11
7 8 7 8 10 14 20 26 29 31 32 29 26 25 24 22 21 20 20 20 19 19 19 19 18 17 19 20 22 26 27 25 24 23 22 21 18 19 16 15 12 7 11
6 6 6 6 6 10 16 21 27 29 27 26 25 25 23 22 21 19 19 17 16 17 16 15 15 16 16 18 21 23 26 27 27 25 22 20 17 13 11 11 11 11 7
8 6 7 7 6 10 12 18 22 26 25 27 26 26 27 26 25 23 21 18 17 15 14 15 16 15 17 18 20 22 22 22 18 17 18 18 15 14 11 9 9 6 5
9 8 8 7 6 9 15 19 26 28 27 22 23 23 24 25 25 24 22 20 18 16 14 13 15 16 17 19 19 19 21 21 22 21 17 17 16 12 10 8 5 3 2
10 8 8 7 8 9 14 18 22 25 21 23 24 26 29 29 28 24 22 23 21 17 15 16 16 16 16 17 22 24 23 22 21 22 17 15 13 11 7 5 3 2 1
10 9 9 8 8 16 25 25 23 20 22 19 18 23 28 29 28 25 24 23 22 22 19 17 18 20 20 20 20 21 24 23 21 20 17 16 11 9 6 4 2 2 4
14 11 7 8 18 22 24 26 29 32 28 21 20 19 24 25 27 25 25 24 22 23 25 26 26 26 22 21 22 22 24 23 21 17 14 11 8 5 2 2 4 7 10
14 11 14 19 23 23 28 26 24 27 26 27 27 28 29 29 28 27 27 26 26 28 29 30 30 29 26 23 22 21 20 17 15 12 8 6 5 2 4 6 7 10 11
6 9 19 25 21 28 20 21 22 25 29 32 35 33 32 33 32 31 31 29 30 33 33 32 30 29 27 22 21 20 18 15 11 7 4 1 1 3 5 7 10 12 15
14 23 21 17 24 26 20 20 18 23 36 30 29 31 33 33 34 33 32 34 33 34 32 33 31 28 25 21 18 14 12 11 9 6 2 1 3 4 7 9 9 10 13
14 20 11 15 24 23 22 20 21 38 26 26 27 30 32 35 35 35 32 33 34 34 31 32 27 22 18 15 12 9 8 6 4 2 1 3 4 5 6 6 8 12 15
12 19 14 19 26 23 24 18 31 25 28 30 29 31 31 35 36 36 32 28 29 30 28 27 25 21 16 11 8 6 3 2 2 2 2 3 5 7 7 9 13 16 15
10 15 14 14 16 22 26 31 25 28 30 27 26 30 32 28 26 27 29 30 26 24 23 21 20 19 14 11 9 6 3 2 3 3 4 6 8 9 11 13 13 13 13
10 14 11 13 21 18 23 25 27 32 28 31 30 28 30 30 28 24 23 26 25 32 30 26 23 21 14 9 5 4 3 4 5 7 8 10 11 12 12 13 13 12 11
12 10 17 19 20 15 17 21 27 31 31 27 28 28 29 27 29 31 29 25 26 22 18 17 17 14 11 9 8 8 6 6 6 8 11 13 15 16 17 16 16 16 17

GFSMW_925_spd_225.txt.gz
Wind_Speed
16 20 22 27 31 31 28 30 32 40 35 33 32 29 34 31 30 33 36 37 39 37 37 31 30 31 26 25 25 23 22 20 19 11 15 19 24 24 23 23 21 24 25
12 14 22 25 28 35 39 35 37 36 42 37 40 28 30 29 30 28 33 39 40 40 39 38 32 32 28 28 26 25 19 19 19 13 11 5 8 19 27 27 28 29 27
16 15 15 22 25 31 39 39 42 42 44 42 30 26 15 19 22 32 35 43 42 41 42 41 38 35 35 31 30 29 28 23 18 25 14 3 7 5 11 23 27 28 28
18 18 17 17 22 37 39 40 36 34 36 36 31 35 35 27 34 32 34 32 35 36 39 42 40 39 34 33 32 31 33 28 23 16 32 27 11 4 4 7 14 21 23
19 19 18 23 22 20 31 37 34 29 31 36 38 36 32 34 21 25 24 29 29 33 36 39 39 40 38 37 34 28 31 31 31 26 17 24 24 18 10 8 4 14 20
16 17 21 15 18 19 21 25 30 35 32 35 41 40 40 34 27 24 26 26 26 28 31 33 37 39 37 34 33 34 28 29 28 28 25 24 13 18 16 8 12 8 9
13 14 12 10 13 16 19 19 22 29 35 36 37 40 39 35 33 28 26 23 24 26 30 31 33 34 37 33 29 28 30 30 30 31 30 28 29 23 16 18 10 7 9
11 12 10 8 10 13 17 18 23 30 29 34 39 39 37 33 32 29 26 26 25 27 25 29 30 29 28 27 28 28 29 30 31 32 30 30 29 28 30 24 13 2 3
13 12 7 10 12 16 23 27 29 29 29 36 34 35 34 33 32 29 27 23 23 23 23 24 25 24 24 25 26 29 31 32 32 32 32 31 29 29 29 28 25 19 4
10 9 8 8 11 14 17 21 27 32 33 33 34 35 35 33 28 25 24 22 23 23 23 22 21 22 24 25 26 28 29 28 29 29 28 28 27 29 29 29 27 24 13
7 9 8 11 14 13 11 14 18 23 27 31 32 31 31 30 27 25 24 25 23 23 23 21 21 23 24 24 24 26 26 27 28 27 27 28 27 27 26 24 23 24 17
9 7 9 13 16 13 10 10 15 19 24 27 27 29 26 25 25 24 25 24 24 23 23 23 22 22 22 22 22 20 23 25 26 27 26 27 25 23 22 21 21 18 14
13 12 11 11 12 16 14 12 15 17 19 23 25 26 25 26 26 26 25 25 25 24 24 22 21 20 20 18 19 17 20 23 22 24 26 28 24 19 18 18 16 12 8
8 10 9 11 13 13 13 14 14 14 16 20 22 23 25 28 28 26 26 26 26 25 24 21 19 19 18 17 17 17 18 18 19 19 20 20 22 26 24 22 20 18 15
7 8 9 10 13 13 11 11 13 13 14 15 18 20 20 22 24 23 25 26 25 22 22 21 20 19 18 18 18 18 18 18 17 19 21 21 19 16 16 17 18 17 12
10 9 10 9 9 11 12 10 12 14 15 13 15 14 15 17 18 22 26 25 24 21 21 20 19 18 16 14 14 15 17 22 27 27 23 22 21 20 16 14 15 14 15
13 10 10 10 10 13 14 13 15 16 16 17 16 16 18 20 22 24 24 24 24 22 20 19 17 16 15 14 16 23 28 28 27 29 26 22 21 19 17 15 14 11 9
16 12 6 7 13 15 15 17 15 19 22 20 19 21 22 22 22 25 25 25 23 22 22 22 22 21 22 24 27 27 28 27 25 22 22 21 18 16 13 11 11 8 6
15 10 7 8 14 19 19 13 15 17 20 24 25 26 26 28 28 29 31 28 26 24 23 25 27 30 29 28 29 29 28 26 24 21 17 14 14 13 10 9 8 6 4
10 9 13 12 14 18 19 13 15 17 23 27 30 27 28 30 30 29 32 31 28 27 27 26 29 33 32 27 29 29 31 27 24 20 17 12 9 9 7 6 5 3 1
11 16 17 16 17 17 17 14 14 21 28 22 24 27 30 30 28 31 33 32 32 30 30 31 30 32 32 28 26 25 26 26 22 18 15 12 9 7 4 2 2 1 0
17 20 16 17 20 17 14 16 18 27 19 22 24 27 30 31 32 33 31 35 36 34 32 32 30 30 31 31 23 24 22 21 20 18 13 10 8 6 5 3 2 1 4
14 18 16 19 22 17 15 19 27 19 21 23 24 27 30 35 39 38 35 31 34 31 28 28 26 26 28 25 22 21 21 19 16 13 10 9 8 7 5 2 3 6 7
15 18 17 14 17 18 19 23 24 20 19 23 25 28 32 31 34 34 36 33 30 28 28 25 23 24 26 25 22 21 19 17 16 15 13 8 7 6 5 5 6 6 8
15 16 13 13 19 24 22 24 21 17 19 21 22 24 25 30 27 25 28 32 32 40 35 30 31 31 24 26 21 19 17 18 15 13 8 7 5 5 6 7 8 9 8
15 11 16 17 23 24 23 21 15 17 20 19 21 22 24 24 26 29 25 17 28 31 32 34 37 29 27 25 22 17 14 11 10 8 6 5 4 5 6 8 8 7 9

GFSMW_925_spd_228.txt.gz
Wind_Speed
18 22 23 26 26 28 29 31 31 31 31 31 31 31 33 31 30 31 30 29 30 30 31 29 27 26 26 26 25 23 23 22 20 17 20 21 22 23 23 23 24 23 24
17 16 18 22 25 30 32 32 34 33 35 34 34 32 30 29 29 28 30 32 32 32 32 32 31 29 27 27 26 25 24 23 22 18 17 10 16 20 23 25 24 24 24
20 19 19 21 24 27 31 35 35 36 37 37 31 27 24 25 26 30 32 35 35 35 36 34 33 31 30 28 29 28 26 25 22 24 19 6 8 13 13 17 23 23 23
23 21 21 24 26 28 31 33 37 38 36 34 31 33 33 29 33 31 31 30 33 35 35 35 33 33 31 30 29 28 29 27 25 20 26 29 23 8 9 9 13 16 18
22 24 25 30 31 30 28 28 34 36 36 34 36 34 33 33 29 27 25 29 29 33 34 34 34 34 33 31 30 28 29 28 28 27 24 22 26 27 19 12 8 10 18
21 21 25 27 28 22 21 22 29 33 36 36 37 37 36 36 29 30 27 26 27 28 32 33 34 34 33 32 30 30 29 28 27 26 26 27 20 20 17 12 19 18 14
16 16 17 17 23 21 20 20 23 27 33 37 36 39 40 36 33 31 28 25 26 27 29 32 32 32 32 30 28 27 28 29 28 28 26 26 27 27 22 20 18 11 11
12 12 16 15 16 16 17 20 21 25 27 33 36 37 36 33 34 32 30 28 26 26 24 28 28 28 27 27 26 27 28 27 28 28 27 26 27 26 25 23 16 2 5
17 17 11 10 14 14 14 17 19 23 26 31 34 33 34 35 34 33 31 27 26 24 24 25 27 26 25 25 26 27 27 28 27 28 28 28 26 26 25 25 21 17 5
17 12 10 8 12 10 11 11 17 23 26 29 31 32 34 34 34 31 31 30 26 26 24 24 24 24 24 24 25 25 27 26 28 28 28 28 27 26 26 27 26 24 17
9 7 7 8 6 11 14 14 13 17 21 25 29 31 31 32 32 33 31 30 27 27 26 25 24 23 24 24 25 24 23 27 27 29 29 29 27 26 26 27 26 24 21
10 9 10 10 14 10 10 11 13 15 19 23 26 29 29 29 32 34 32 30 29 27 27 25 24 23 21 23 25 22 26 26 26 25 26 27 23 25 27 26 24 23 22
15 11 8 7 9 11 13 14 14 14 16 20 23 26 28 30 32 33 31 30 29 28 26 24 24 24 22 21 21 21 22 23 22 21 21 24 24 24 26 24 22 20 20
12 10 7 5 7 10 12 13 14 13 14 18 21 24 27 29 30 30 30 30 29 27 26 24 23 21 20 19 19 20 20 19 19 19 19 19 21 23 21 19 20 21 18
18 16 13 12 10 13 14 15 14 12 11 13 17 22 23 25 26 27 28 27 26 24 22 22 20 20 19 22 21 20 20 19 17 15 15 15 17 20 22 24 20 17 14
21 18 17 16 13 13 15 14 14 12 9 11 13 15 17 21 23 23 24 23 22 21 21 22 24 23 23 22 21 19 18 16 15 15 15 17 19 19 18 17 16 14 14
20 20 17 15 15 14 12 14 13 12 11 13 14 15 13 16 18 19 20 20 22 25 24 22 22 21 19 18 17 17 18 19 21 25 26 24 21 20 17 16 16 14 14
20 20 15 11 11 11 13 14 15 13 13 15 17 17 17 19 17 17 17 20 26 27 25 23 23 21 18 18 19 20 21 24 26 27 26 25 22 18 17 15 14 13 12
17 15 17 11 11 12 14 15 16 15 15 16 17 18 18 19 21 25 23 20 24 27 29 29 26 24 23 21 21 23 25 27 27 25 22 21 21 20 17 15 14 12 10
16 14 13 13 15 16 14 15 16 17 20 16 15 17 19 21 22 22 23 25 24 26 28 26 27 27 29 27 26 30 33 31 29 25 23 19 19 20 17 16 15 14 12
19 21 20 21 20 17 16 15 17 20 18 18 18 18 21 24 24 25 25 27 27 28 26 25 25 30 33 35 32 32 35 35 33 30 27 22 19 18 15 13 13 10 9
20 24 23 23 22 17 14 16 17 18 19 18 19 20 22 23 24 28 26 28 32 31 28 29 26 29 35 34 32 31 31 31 33 30 25 21 17 14 13 11 9 9 7
19 24 24 26 24 19 17 17 18 16 17 19 19 20 21 25 27 28 28 26 29 27 24 25 24 24 30 32 31 28 24 26 27 26 24 21 18 16 12 10 8 7 6
19 24 23 19 20 21 20 19 17 17 18 20 21 20 20 23 28 27 30 28 27 26 28 26 25 26 26 31 29 27 26 23 25 24 22 20 17 13 10 9 8 6 5
25 28 21 19 23 24 24 22 19 17 18 21 21 17 19 25 22 23 26 29 33 39 34 31 34 34 28 31 38 36 32 28 26 26 23 20 17 11 9 7 7 7 7
30 25 28 27 27 28 28 25 20 17 17 18 18 14 17 20 22 24 17 16 21 32 38 48 48 33 34 40 36 32 28 25 25 22 18 15 12 9 8 8 8 8 7

GFSMW_925_spd_231.txt.gz
Wind_Speed
22 28 29 30 30 29 32 32 32 33 32 33 32 31 32 31 31 31 32 32 32 33 34 32 28 28 29 28 27 25 24 23 22 20 21 20 20 23 24 22 24 25 25
22 21 30 28 30 30 30 31 33 33 36 33 33 32 31 30 31 30 30 33 33 33 36 36 32 32 30 28 28 28 24 25 23 20 18 9 17 26 29 27 27 26 25
19 20 21 28 28 30 29 32 33 33 35 35 31 28 26 26 28 29 31 35 38 38 37 37 35 32 34 31 31 29 30 23 23 25 19 7 10 13 17 24 22 24 24
22 23 22 21 26 27 27 30 33 34 35 35 32 34 30 28 32 34 33 32 36 37 38 37 36 35 33 33 31 31 30 27 23 22 28 29 19 6 8 11 17 19 21
23 23 21 27 34 32 29 29 29 30 35 38 39 33 34 33 29 29 29 32 32 38 37 38 38 36 35 33 33 29 33 30 28 25 20 24 23 23 16 10 10 11 16
23 24 28 33 35 34 31 31 32 33 34 37 41 41 35 35 31 29 30 30 32 33 38 38 38 38 36 35 33 33 29 32 29 28 25 24 18 18 16 11 15 17 15
16 18 19 22 29 29 27 25 24 26 30 37 40 42 42 38 37 32 32 28 29 32 35 40 38 38 38 34 33 31 32 31 31 29 27 26 25 23 21 18 15 11 16
10 14 18 17 22 24 26 24 23 25 28 32 37 39 41 38 35 35 31 32 30 31 30 34 36 36 34 34 32 31 30 30 30 30 29 26 24 24 24 21 16 7 6
18 18 15 16 16 22 18 17 22 26 27 28 31 35 35 36 34 36 34 31 31 28 29 31 34 34 34 32 32 31 30 29 29 29 29 27 25 22 23 21 20 12 5
21 16 15 11 15 15 18 17 19 22 22 24 28 32 34 35 35 31 32 32 31 31 29 31 32 33 33 32 32 30 29 28 28 26 24 25 24 25 26 25 25 24 18
10 9 6 9 9 10 10 12 14 15 16 18 25 29 31 33 34 34 32 33 33 31 32 32 32 33 33 33 31 30 28 28 26 26 24 24 24 25 26 26 25 24 22
13 7 8 13 11 13 13 8 9 11 14 16 19 24 28 30 32 33 34 33 34 34 33 32 33 33 32 32 31 30 28 27 26 24 26 26 25 26 25 24 24 25 23
15 15 10 12 10 12 8 9 9 10 11 14 17 21 25 28 31 33 34 34 35 34 33 33 33 33 31 30 28 27 27 27 24 23 26 25 24 24 24 24 24 23 21
17 11 15 10 10 9 12 14 13 9 11 13 15 19 22 25 28 28 29 31 33 34 34 34 33 31 28 31 28 28 26 26 24 23 20 20 21 22 22 22 21 19 15
21 14 14 14 16 17 19 15 15 15 13 13 14 16 20 22 24 26 28 30 32 33 34 33 31 29 28 29 30 29 27 25 24 20 19 19 19 18 17 19 19 18 19
23 23 22 20 17 19 22 18 15 14 12 13 15 15 16 20 22 23 25 27 30 32 32 31 29 29 30 31 31 28 24 25 22 20 17 15 15 14 15 17 19 21 24
18 18 20 21 19 21 21 21 17 13 14 14 14 14 13 14 18 15 22 27 27 28 27 27 29 30 34 32 30 24 21 22 21 20 18 17 16 18 21 22 21 18 16
15 16 16 15 22 19 12 15 17 15 15 15 14 14 14 14 18 19 17 15 19 19 20 24 25 23 31 29 28 25 22 21 21 22 22 23 25 24 25 23 20 18 16
10 10 17 23 24 18 16 18 18 16 16 16 15 14 15 17 17 19 18 21 23 22 21 21 22 20 29 29 30 29 26 25 24 24 25 26 26 25 23 23 23 19 16
17 16 23 25 21 19 21 23 20 19 17 15 15 14 14 18 20 21 21 23 24 24 29 24 21 22 28 29 28 29 31 29 28 26 26 24 24 23 20 19 22 21 16
22 24 26 24 27 25 24 23 24 22 20 17 14 15 16 18 19 20 22 21 22 24 28 29 27 27 30 32 29 28 34 37 36 32 27 24 21 22 18 16 16 15 15
28 31 28 27 28 28 27 25 24 23 20 19 18 18 15 16 17 20 22 24 24 24 24 25 25 28 31 32 29 28 33 36 38 36 30 26 22 18 17 16 12 12 13
27 35 31 31 31 29 29 26 25 22 20 18 20 19 18 17 17 18 20 22 24 23 20 21 21 24 30 36 35 34 33 35 33 30 28 26 23 19 16 14 13 14 12
25 34 32 25 27 30 30 31 31 24 22 20 19 18 18 18 14 20 24 23 22 21 22 22 22 25 29 35 40 33 29 31 29 32 29 27 23 19 16 15 12 10 10
32 34 29 26 31 35 34 33 32 26 25 23 20 18 16 14 11 18 23 25 29 34 28 25 27 29 27 35 37 43 45 39 38 38 32 26 23 19 15 11 11 10 9
34 31 34 34 35 36 36 34 34 30 26 22 19 17 13 10 14 20 15 24 23 28 32 34 45 32 31 40 40 38 38 39 42 34 28 23 21 17 15 13 13 11 12

GFSMW_925_spd_237.txt.gz
Wind_Speed
11 34 34 38 44 46 46 47 44 42 42 37 37 35 34 38 39 35 40 40 40 42 40 42 35 37 37 38 35 30 35 34 29 26 25 27 30 32 39 36 34 32 30
12 13 33 37 39 45 47 47 48 47 46 40 37 35 33 32 34 38 37 41 43 41 45 44 46 39 41 37 39 36 32 34 35 24 11 3 19 33 32 31 36 36 34
21 11 18 28 38 44 47 47 49 51 49 44 34 30 29 29 29 36 40 46 42 45 44 47 45 45 42 44 40 43 40 30 33 34 15 2 6 2 16 34 38 39 39
13 18 10 14 35 42 51 52 50 49 50 48 40 37 35 31 38 40 37 38 46 45 47 48 48 46 46 43 46 43 44 36 29 30 37 33 5 4 3 12 26 33 37
10 12 9 18 26 39 46 50 52 50 46 47 45 43 36 36 31 32 34 37 39 46 49 49 48 48 48 47 45 44 46 43 32 33 30 32 30 26 8 4 10 11 19
10 10 8 8 23 24 33 41 42 42 45 47 46 44 42 37 33 34 36 37 41 44 47 51 51 51 46 48 49 48 45 44 41 34 36 30 18 23 16 9 12 12 23
9 10 11 8 10 20 28 33 38 40 46 48 49 47 46 45 42 40 39 35 34 36 44 51 48 48 51 46 42 44 44 44 42 43 39 37 36 29 27 22 10 8 16
8 11 10 3 10 11 20 29 29 30 35 41 45 48 47 43 42 39 36 39 37 40 43 49 48 49 47 46 44 42 45 41 46 42 41 37 37 37 29 24 16 3 8
5 7 11 4 3 7 18 15 12 20 31 43 40 36 38 35 33 37 37 38 40 37 41 44 50 50 48 46 44 44 41 41 42 44 41 40 35 38 40 33 26 15 5
5 8 7 9 22 17 4 17 19 14 15 20 32 34 33 34 38 35 35 37 37 39 40 44 47 48 45 45 44 40 40 38 40 39 37 39 37 36 34 33 34 32 22
12 7 7 11 16 24 26 16 8 10 12 7 8 9 15 20 28 31 38 39 40 41 37 38 46 46 45 43 41 43 37 39 37 37 39 38 37 36 38 36 33 32 24
9 9 9 12 12 14 15 19 24 27 11 2 7 10 12 15 20 29 30 36 42 39 38 40 38 41 43 43 43 42 39 37 38 39 36 40 36 37 35 37 33 32 30
10 9 9 8 9 16 18 20 21 19 18 16 12 3 5 10 16 21 23 25 31 40 41 39 39 40 43 42 42 42 40 40 41 38 38 38 34 35 31 34 32 30 27
8 6 8 7 9 9 9 9 10 11 12 14 14 16 13 12 17 21 24 27 29 29 37 41 40 41 42 43 41 42 41 41 39 40 39 39 39 36 33 34 32 28 26
18 15 7 8 9 16 22 23 18 10 9 9 10 15 17 19 21 23 24 24 27 31 31 37 42 41 41 43 42 41 41 39 38 38 40 40 40 41 40 37 33 30 27
19 20 19 14 15 20 20 25 29 22 13 8 7 9 12 20 25 28 28 26 24 25 32 34 37 40 42 43 47 45 40 40 38 36 38 41 41 42 40 35 31 30 30
15 16 17 16 16 16 24 26 27 26 14 13 14 15 17 19 25 30 28 28 28 25 24 30 34 39 43 44 44 47 42 37 37 35 40 42 42 41 37 31 26 25 27
16 15 14 21 27 29 32 27 28 28 24 13 13 17 18 21 24 26 31 32 29 29 30 30 30 34 40 42 42 45 44 39 44 46 44 42 38 37 36 32 28 26 25
10 17 23 25 27 28 29 28 30 32 29 27 21 16 16 23 29 29 29 31 30 29 29 29 29 29 35 37 39 43 40 36 41 41 40 43 41 38 36 34 32 27 24
18 18 22 26 26 29 32 30 25 25 24 28 27 28 29 28 29 29 27 30 30 30 28 29 27 27 29 29 30 39 37 37 37 37 39 41 41 38 37 38 38 34 30
23 24 22 22 27 31 32 30 30 27 30 31 35 38 34 32 30 27 25 26 27 28 26 26 26 24 25 25 31 42 42 40 37 39 38 36 36 37 36 37 41 41 36
22 25 25 21 26 32 32 33 32 37 37 34 32 35 38 36 20 14 18 22 24 23 24 22 26 24 23 26 29 41 43 40 43 40 38 36 36 38 37 37 38 35 36
22 24 23 28 29 31 29 30 37 39 37 35 35 34 37 36 26 21 19 15 21 22 24 20 23 28 23 22 25 35 33 35 39 38 39 39 37 41 38 34 32 33 37
23 25 26 26 31 31 32 35 38 40 36 35 34 34 32 34 36 26 22 19 16 19 16 19 21 26 26 26 25 27 26 27 26 31 34 38 40 39 35 32 33 35 35
28 28 28 27 32 36 37 38 36 35 36 36 36 34 31 32 33 32 27 22 20 16 18 22 24 22 22 33 34 33 33 32 30 33 36 32 29 29 31 31 31 28 28
29 29 30 31 35 38 41 44 39 35 38 35 34 31 29 29 29 30 22 19 16 15 18 21 26 31 34 33 31 33 36 37 39 24 31 26 25 23 23 23 23 26 26

GFSMW_925_spd_240.txt.gz
Wind_Speed
18 35 37 39 40 40 41 45 45 45 44 40 38 36 36 37 40 41 40 39 39 39 40 42 41 35 40 39 36 36 36 36 35 27 30 30 29 33 36 36 36 37 37
14 16 33 34 40 43 46 44 47 46 50 43 42 38 33 33 37 41 41 42 42 41 41 42 44 43 40 41 39 37 35 35 34 23 7 3 17 31 39 38 38 37 35
21 12 17 30 40 43 45 45 47 48 50 47 39 33 30 26 31 39 44 45 44 45 45 44 45 45 45 45 44 42 41 29 29 34 17 1 5 3 12 22 35 42 42
15 17 11 21 35 46 51 52 51 51 53 48 42 44 41 36 40 38 37 39 45 46 47 46 47 47 47 47 48 47 46 37 30 24 38 36 9 4 4 7 17 21 28
8 11 12 22 35 47 49 50 51 50 49 49 46 47 42 43 38 34 34 39 41 46 47 48 49 49 50 50 47 43 47 43 35 33 24 31 30 25 7 10 9 15 17
9 8 10 14 21 41 49 47 47 50 48 47 47 45 44 38 33 35 36 36 40 43 47 50 51 51 49 50 50 48 44 46 41 37 34 32 17 24 15 7 17 15 26
9 10 10 8 10 25 38 38 39 40 39 42 44 44 43 41 41 41 41 38 35 35 44 50 49 50 51 49 46 44 46 46 41 41 40 36 38 32 29 23 16 9 14
10 9 9 6 8 14 33 37 36 37 40 41 42 43 43 39 39 37 35 36 35 39 42 46 49 50 49 50 46 44 47 43 44 43 41 38 38 36 35 30 16 4 5
17 12 12 8 11 3 17 28 36 39 38 40 40 37 36 34 35 35 37 34 35 35 38 42 46 49 49 48 46 42 43 41 42 44 42 40 40 35 36 36 33 20 10
17 15 14 14 19 18 13 8 21 25 28 31 33 34 34 33 28 26 27 29 33 36 37 42 45 47 47 47 44 42 41 37 41 39 36 40 38 36 37 39 35 35 25
12 12 13 19 20 24 34 32 21 4 14 29 35 31 30 27 24 27 29 33 35 38 40 43 45 45 44 46 44 43 41 39 40 37 38 40 38 36 35 34 35 33 29
12 11 14 17 16 21 26 25 24 28 18 8 5 14 15 18 19 23 26 30 33 35 37 40 42 44 44 43 44 43 41 40 39 41 36 41 34 38 36 32 34 32 32
20 15 18 17 24 27 28 28 23 13 15 17 16 12 10 7 4 1 7 12 16 21 30 36 37 41 42 42 44 44 42 42 43 41 40 40 35 36 35 34 33 32 31
17 19 17 16 19 23 26 26 31 32 15 7 7 7 6 6 5 7 9 12 14 16 18 25 34 39 42 43 42 42 41 41 42 42 41 41 39 39 36 34 35 31 29
19 17 16 16 25 30 30 30 30 32 25 19 13 9 7 7 8 10 11 15 17 18 19 20 26 33 38 40 40 40 40 39 38 39 40 41 41 41 41 35 34 31 30
16 16 17 20 21 25 28 30 31 32 33 27 18 17 17 17 17 17 19 19 22 22 24 25 25 26 32 40 41 42 39 39 39 38 38 41 42 44 46 42 41 42 35
14 15 13 13 18 21 28 31 31 32 34 34 32 29 19 16 15 17 20 24 26 26 26 27 29 31 34 33 37 42 45 37 38 39 38 37 42 47 47 44 45 46 45
14 15 17 24 28 27 27 28 30 31 31 32 35 37 36 27 20 21 23 25 25 25 25 27 29 33 36 33 31 33 40 41 39 41 42 41 44 49 49 46 47 45 42
13 18 22 25 25 23 27 29 28 23 22 23 26 31 34 33 34 32 27 25 23 24 23 25 28 30 36 34 32 31 32 38 40 38 40 46 45 50 50 46 44 37 35
15 22 25 27 25 26 29 28 28 27 24 22 27 27 32 30 32 34 33 30 23 20 21 23 26 29 33 32 30 30 35 31 36 44 44 45 51 52 50 47 45 36 33
20 19 19 24 24 29 31 33 36 31 27 27 30 33 32 31 31 33 36 32 24 19 19 22 25 27 29 29 30 30 31 31 36 40 43 45 47 49 52 53 53 48 37
14 19 22 22 25 27 28 30 32 36 36 34 33 32 30 32 32 31 36 35 27 20 21 20 26 29 28 29 28 29 28 29 23 33 42 44 43 38 44 36 44 41 40
14 18 21 24 26 25 24 27 34 35 37 38 39 37 35 33 32 31 32 31 32 27 23 17 20 21 28 28 26 27 29 27 34 29 32 37 40 36 43 45 38 38 44
20 23 25 27 29 27 28 30 36 36 36 36 37 36 34 35 32 31 33 31 25 27 22 19 19 22 24 26 24 25 27 27 27 29 27 24 25 23 26 35 39 42 47
22 24 24 27 32 35 35 33 32 33 36 36 38 38 34 33 32 31 32 31 32 29 30 31 22 18 17 22 21 23 27 26 26 23 15 16 21 16 23 22 25 37 36
24 24 27 30 34 35 37 36 35 34 33 34 34 34 33 34 32 30 30 31 34 30 29 24 19 18 20 21 23 24 25 25 24 15 12 15 18 18 20 20 26 26 29

GFSMW_925_spd_243.txt.gz
Wind_Speed
14 28 30 35 35 37 37 42 39 41 45 40 37 36 39 40 42 44 43 43 42 42 41 41 40 36 36 37 36 34 34 33 31 24 27 32 33 34 35 36 37 37 36
14 15 26 31 34 36 43 40 44 40 48 43 42 36 34 35 40 42 43 45 44 43 43 44 44 43 41 37 38 36 32 34 31 17 6 4 13 24 34 39 41 43 39
11 16 15 27 34 37 41 44 48 47 46 46 37 30 28 25 30 39 46 46 44 44 44 44 44 44 43 41 42 41 39 27 26 31 15 1 5 4 8 17 23 28 32
7 6 11 16 31 41 45 47 49 49 51 45 38 41 40 36 43 43 40 43 46 46 45 44 44 44 43 44 43 42 42 35 26 22 34 35 11 3 5 5 8 11 16
9 10 10 21 28 36 43 43 45 48 48 46 44 44 42 42 38 34 36 43 46 48 48 47 47 47 46 46 45 40 41 39 33 30 17 29 30 28 11 13 14 19 21
16 16 17 17 22 31 42 45 44 47 47 47 49 45 45 39 31 34 34 37 41 46 49 49 49 48 47 47 47 44 42 43 40 37 32 30 15 18 13 9 23 18 28
14 16 14 14 20 25 33 42 42 42 43 45 49 48 48 42 39 38 38 35 34 34 47 51 49 50 51 49 45 43 44 45 40 41 38 34 37 33 27 21 19 7 16
18 20 19 16 22 25 24 35 37 39 39 41 45 49 48 41 35 30 30 33 36 40 38 44 45 47 47 47 45 43 45 43 42 43 40 38 38 34 33 32 19 7 6
21 20 20 26 32 34 29 13 24 30 32 37 35 38 38 37 36 29 31 28 30 32 36 36 39 43 44 46 45 43 43 43 42 42 42 38 40 34 35 37 33 23 12
20 21 21 30 36 37 36 37 15 4 18 24 28 27 28 29 29 29 39 37 33 32 32 32 35 38 40 42 42 39 41 38 41 40 36 40 39 35 37 38 35 32 29
15 18 19 32 36 39 42 41 37 28 6 13 22 26 28 28 26 23 24 26 22 33 37 36 36 38 38 38 38 40 38 38 38 37 37 40 39 35 35 38 34 32 29
15 16 20 30 33 36 39 40 40 38 36 20 9 13 15 18 21 21 21 26 43 39 32 31 32 36 37 39 41 40 38 39 36 39 37 39 35 35 36 33 33 32 32
17 18 19 21 27 33 35 37 40 41 42 37 27 21 10 4 4 8 7 12 11 8 10 17 22 27 31 35 38 41 40 38 39 39 37 37 34 32 32 33 32 30 31
16 17 18 19 27 30 32 36 37 39 41 42 37 34 26 19 14 8 6 7 8 8 6 6 9 14 21 28 32 37 39 37 37 39 40 38 37 37 35 33 34 32 29
17 16 16 15 26 30 30 28 32 37 38 37 33 33 36 30 21 17 16 15 13 13 11 10 10 10 12 14 22 28 34 36 36 38 41 41 42 44 42 36 34 32 31
15 15 14 18 22 25 28 34 31 31 34 33 30 33 37 35 35 30 25 20 17 15 14 12 11 10 11 12 14 15 23 27 29 32 34 38 41 44 47 48 48 40 35
13 14 13 15 17 19 20 24 28 27 24 24 27 29 31 34 33 33 30 28 26 19 14 13 14 15 14 15 15 15 18 22 25 29 31 33 36 40 44 50 52 54 51
14 13 18 22 19 18 19 25 27 25 25 26 23 23 26 27 30 31 33 33 32 29 24 17 14 15 17 17 17 16 17 20 23 23 27 34 36 38 42 41 43 54 57
7 17 20 18 23 24 26 26 23 22 24 24 26 26 27 29 25 27 29 32 30 32 28 25 20 19 19 18 18 18 17 20 24 25 26 26 35 38 41 43 37 42 44
15 15 18 25 24 27 27 28 29 26 21 25 28 29 30 33 31 27 31 29 31 32 32 28 27 22 22 20 17 16 17 22 25 26 27 28 28 36 42 43 39 35 46
15 17 23 21 23 29 31 28 25 25 30 32 31 30 29 31 31 33 34 34 35 34 34 31 31 27 23 22 19 19 19 20 24 27 31 30 29 29 33 41 40 40 45
16 19 17 18 23 23 24 29 31 30 31 34 37 37 33 31 30 29 32 31 31 29 31 31 31 32 29 25 21 19 18 17 19 23 27 30 31 31 27 30 40 42 32
17 19 21 22 21 21 22 25 30 34 38 37 35 36 37 35 31 30 31 29 27 28 28 24 24 30 34 30 23 17 12 16 19 19 21 24 29 30 26 22 32 29 24
15 19 21 22 25 28 30 30 30 33 33 32 33 35 34 36 35 30 28 27 27 24 26 23 22 25 29 33 24 16 10 12 15 18 21 21 23 24 21 20 23 27 31
19 21 21 22 26 29 31 33 36 35 36 35 35 35 33 32 33 33 32 29 33 30 28 28 27 23 23 33 21 11 9 11 14 15 17 15 14 15 16 17 21 23 18
18 20 23 26 30 32 33 33 34 34 35 36 34 33 34 34 34 32 35 34 36 37 37 39 36 38 33 21 15 13 12 13 13 11 12 13 15 15 14 13 12 13 14

GFSMW_925_spd_249.txt.gz
Wind_Speed
26 26 23 19 15 24 28 33 35 41 36 35 34 34 34 30 31 30 30 32 33 35 38 33 32 33 28 28 27 24 22 20 17 12 17 21 24 29 27 25 27 27 27
24 30 33 30 24 21 27 32 38 40 44 41 39 32 33 33 34 30 31 37 38 38 39 40 35 34 30 29 28 26 21 21 18 13 9 6 10 13 20 22 23 24 21
26 26 34 33 32 31 28 28 34 37 42 43 34 31 23 25 27 35 37 41 41 41 42 44 42 38 38 33 33 30 28 22 17 22 13 4 6 3 7 12 10 13 20
26 26 34 36 39 37 33 26 23 35 38 39 34 36 38 32 40 35 36 37 39 39 44 45 42 42 39 37 36 34 32 27 24 15 26 27 13 5 6 9 12 10 14
24 26 34 37 36 40 39 32 28 20 35 35 41 37 39 39 32 30 31 36 39 46 43 46 44 43 41 41 37 33 34 32 30 27 14 24 25 23 17 12 15 14 17
22 28 34 36 40 42 46 41 39 24 19 36 39 42 40 39 31 31 33 35 38 37 44 48 45 43 41 41 41 39 34 36 32 31 27 24 13 19 18 13 21 21 26
19 22 28 35 40 43 43 42 45 44 41 27 35 40 40 35 36 31 29 27 28 32 39 46 44 43 42 38 34 34 36 34 34 32 32 29 31 28 23 20 20 15 23
18 20 27 31 33 37 39 43 45 47 47 40 24 30 33 30 30 31 28 28 29 30 29 30 35 36 35 33 32 30 30 29 31 33 31 30 29 28 29 27 21 13 15
18 19 28 30 31 35 39 39 43 43 44 42 40 32 22 28 29 29 30 30 28 29 26 26 27 32 31 32 29 29 31 30 30 31 33 31 32 29 28 29 28 23 13
20 19 26 28 29 31 35 41 41 40 39 37 41 43 41 30 22 29 28 29 29 28 28 31 35 33 35 33 32 32 32 31 31 30 28 31 31 29 29 29 28 27 26
16 16 23 27 29 33 31 34 40 37 41 40 35 36 39 41 38 37 23 21 29 31 32 31 32 32 32 31 26 25 26 25 27 28 30 31 30 29 27 27 27 27 26
15 18 24 26 29 31 31 33 35 36 33 35 36 34 34 36 37 41 38 36 26 12 22 25 31 29 27 24 20 19 27 28 27 28 29 32 29 30 29 27 28 28 28
15 16 23 25 28 26 32 32 31 33 35 34 34 34 35 34 36 37 38 36 34 28 20 16 9 20 24 23 12 10 19 25 26 27 28 31 26 29 26 26 28 29 27
12 15 17 22 22 26 25 26 26 32 33 34 34 34 35 35 31 31 35 35 34 33 29 23 12 22 25 19 21 25 28 29 30 26 31 30 27 28 28 30 30 28 25
12 13 15 22 26 26 28 27 29 32 33 31 32 34 36 33 33 33 32 32 34 32 31 29 21 14 14 21 26 32 34 40 34 35 40 38 35 34 34 31 29 25 25
13 13 16 20 24 28 27 27 28 26 28 28 29 31 34 35 34 36 33 30 33 35 34 33 30 25 18 11 8 2 21 23 22 29 31 29 32 33 34 37 39 33 27
12 14 17 19 23 26 25 27 26 28 26 25 25 23 25 31 33 33 34 34 32 32 31 31 26 29 24 20 18 14 14 17 18 22 20 23 26 26 28 29 30 31 36
12 16 20 20 22 21 25 28 28 27 27 27 28 28 27 27 26 31 32 31 28 28 29 32 27 27 28 28 23 21 23 19 19 19 20 22 23 23 21 23 24 29 34
14 17 16 20 20 21 21 24 29 27 27 29 29 28 28 27 27 25 25 29 29 30 29 27 30 29 37 32 31 26 23 20 22 22 23 24 24 23 21 21 28 31 36
14 15 19 20 19 21 22 22 23 27 29 30 31 34 35 31 31 29 29 29 25 25 27 30 30 29 30 31 35 29 25 24 27 33 29 25 26 23 18 19 24 28 34
12 16 19 19 20 21 22 23 25 25 29 33 33 33 33 33 33 32 30 29 30 29 29 30 31 29 28 28 31 27 24 22 24 35 36 33 25 21 18 19 24 29 27
17 19 18 19 19 19 22 25 26 29 31 33 35 37 36 35 33 33 32 30 28 27 27 28 30 26 24 25 24 26 24 23 26 32 29 30 23 19 20 22 26 26 23
15 15 16 20 21 20 21 25 28 30 31 35 36 37 37 38 36 34 33 31 27 27 26 25 25 25 24 23 23 22 24 23 24 30 34 31 25 18 19 20 19 19 19
13 15 17 18 21 22 24 24 27 27 30 32 33 33 33 34 35 35 34 32 27 25 26 27 26 27 26 25 21 20 20 22 25 29 30 29 23 20 20 19 15 15 17
14 14 15 18 20 22 24 24 26 27 30 31 33 33 31 32 32 30 30 32 33 33 33 31 30 28 29 27 26 31 34 34 34 38 30 24 21 20 22 18 17 16 16
13 14 15 17 20 22 23 24 26 28 30 31 31 32 33 33 33 34 34 32 34 36 38 42 43 39 40 42 41 39 40 39 32 29 22 21 17 15 14 13 12 15 17

GFSMW_925_spd_255.txt.gz
Wind_Speed
23 26 28 32 35 37 36 33 29 28 24 16 21 23 27 27 27 29 29 29 29 29 31 31 31 29 28 28 27 26 25 23 23 21 22 23 23 25 27 26 27 28 28
18 24 28 30 33 34 34 35 33 31 31 29 26 23 25 26 29 28 28 30 29 31 31 34 31 31 31 29 28 25 25 25 24 21 19 10 18 28 32 33 32 31 29
17 18 25 30 32 32 33 34 36 34 31 36 29 30 23 27 28 28 28 29 33 34 34 32 35 32 32 31 32 30 27 24 23 25 19 8 9 14 20 29 26 23 23
15 17 21 25 28 29 29 30 33 35 37 34 35 30 29 29 26 27 29 28 30 35 35 34 34 35 33 34 33 34 33 29 25 21 29 30 22 5 7 13 18 19 20
14 15 20 22 24 27 26 27 27 31 34 35 38 35 38 35 35 30 27 27 27 29 34 35 35 36 36 35 34 32 33 34 31 30 24 26 25 26 16 12 15 18 20
13 17 17 19 22 23 26 28 29 29 31 32 34 38 38 39 39 42 35 25 23 28 31 33 36 37 38 37 37 35 35 34 34 33 31 28 20 18 16 11 15 17 26
12 13 17 20 21 24 24 25 28 30 30 31 31 31 32 30 32 35 34 33 34 28 24 30 34 37 38 39 37 37 37 39 36 37 34 34 34 29 26 21 15 11 19
11 13 17 19 21 22 23 25 26 26 29 30 31 26 30 29 28 30 36 33 32 33 34 25 26 34 38 38 40 39 39 38 40 41 39 37 34 34 31 28 20 12 13
10 11 14 16 18 20 22 23 25 26 26 27 27 29 27 30 28 32 32 35 35 35 37 35 26 22 34 37 39 40 41 40 40 40 41 40 37 34 34 31 29 21 13
8 9 13 15 18 19 20 21 22 25 26 27 26 26 28 30 29 28 29 33 39 36 39 38 37 26 21 31 37 39 40 41 40 38 38 39 38 38 35 33 30 29 23
7 8 10 13 16 18 20 22 22 24 24 25 26 25 27 31 30 28 29 28 34 36 35 32 35 35 32 28 32 38 37 39 39 39 39 40 38 36 35 34 32 30 28
7 10 13 14 16 19 21 23 23 23 24 25 24 25 26 28 28 31 32 29 30 29 32 33 32 31 33 35 39 23 36 37 37 38 39 39 36 39 36 32 31 28 25
6 9 12 14 17 20 22 23 22 22 23 23 24 25 25 25 30 30 34 32 31 30 33 33 33 31 31 32 37 43 38 29 41 42 40 39 36 35 31 31 26 23 21
7 8 10 15 17 19 21 22 21 22 23 24 23 24 26 26 25 24 30 32 31 29 32 31 28 29 30 25 32 39 37 38 40 24 38 38 39 40 38 32 28 25 21
7 9 11 15 18 19 19 19 21 23 24 24 25 26 26 27 29 31 31 30 30 34 31 32 33 26 25 18 28 36 46 43 34 35 25 22 32 41 34 26 27 24 18
8 10 13 15 17 18 19 19 21 22 23 25 24 26 27 29 30 29 31 32 31 33 36 32 33 33 24 23 29 28 34 34 31 30 31 27 31 37 12 27 29 32 22
9 10 12 15 16 17 18 19 21 22 22 23 24 28 30 31 30 31 32 31 32 29 29 34 33 35 33 32 31 36 30 26 30 29 29 29 26 31 30 39 46 47 47
9 10 13 15 16 17 18 20 21 22 23 23 25 27 28 30 32 33 33 33 33 31 31 28 29 30 28 35 41 36 30 28 29 28 29 26 23 19 29 20 15 15 22
7 10 13 15 16 16 18 20 21 22 22 24 26 28 30 32 32 32 32 31 32 33 32 31 33 30 32 36 38 37 33 32 32 31 28 29 25 19 24 26 22 19 18
7 9 12 13 14 16 17 19 20 21 22 25 28 29 31 32 34 33 33 32 32 34 33 35 33 31 32 30 33 35 29 31 27 26 23 20 24 28 25 29 20 16 19
7 9 10 11 13 15 17 18 19 20 22 25 28 29 32 33 33 34 34 33 30 29 29 31 31 31 29 30 31 28 26 27 29 27 24 25 23 23 26 23 27 22 18
7 8 9 12 13 14 15 17 18 21 23 26 29 31 32 32 33 34 34 33 32 31 32 32 32 30 29 30 31 32 32 29 30 29 26 26 26 26 26 30 22 26 27
7 7 10 12 13 14 14 16 19 21 24 26 28 30 32 32 34 33 33 32 31 29 28 29 31 32 32 32 34 34 32 32 32 30 30 30 26 26 32 33 35 19 22
6 8 10 11 12 13 15 15 18 20 23 24 26 29 31 35 32 31 30 30 30 27 28 30 30 34 34 32 30 29 27 28 26 26 24 28 34 29 27 31 28 26 21
4 6 8 10 11 13 14 16 18 20 22 23 25 27 30 32 31 31 29 30 30 31 31 30 29 31 31 34 38 39 35 33 32 35 29 22 21 23 23 21 19 21 21
4 5 6 8 10 12 14 15 16 18 20 22 24 27 28 29 30 30 32 29 30 31 30 29 29 32 34 40 39 34 36 36 34 30 21 19 20 22 21 19 15 18 12

GFSMW_925_spd_258.txt.gz
Wind_Speed
21 26 27 28 29 32 37 39 41 37 34 31 27 23 23 21 21 23 25 26 25 26 30 34 32 32 31 29 29 30 29 28 28 28 28 28 25 27 33 31 29 32 35
15 21 24 25 28 29 32 34 34 39 36 30 26 18 20 17 18 21 22 29 31 26 27 32 32 32 31 32 31 31 29 29 32 21 20 7 18 30 35 35 38 44 41
13 14 21 24 24 27 28 27 29 29 34 31 34 33 18 25 29 29 28 31 29 32 35 31 32 33 33 32 37 36 36 26 29 35 18 4 6 7 27 36 42 41 38
13 15 18 20 23 23 25 25 26 27 28 30 31 29 24 21 22 27 31 28 22 21 33 36 36 36 35 35 35 37 37 33 27 25 39 36 19 4 3 15 21 36 36
12 12 16 19 21 21 21 21 22 24 26 27 27 27 24 21 25 35 34 38 32 30 27 21 25 38 38 36 38 35 35 36 34 32 27 31 32 32 12 9 14 20 22
10 15 16 18 19 20 21 22 22 21 23 24 25 25 26 26 27 31 36 41 42 44 40 37 31 24 30 40 38 43 38 37 37 36 35 32 19 22 17 11 14 17 29
9 10 14 16 17 19 19 20 22 22 23 22 23 24 22 24 24 26 26 28 33 38 41 42 39 37 31 27 39 39 40 39 40 38 37 37 38 34 29 27 18 11 26
7 9 14 14 15 15 17 17 19 20 22 22 21 21 22 23 21 24 25 25 25 30 33 38 39 39 38 34 27 37 41 38 42 41 40 40 39 40 38 32 22 11 11
7 8 11 13 13 15 16 16 17 18 19 20 21 20 21 21 23 24 25 25 25 26 30 31 36 41 40 38 39 29 31 41 42 41 42 46 42 42 39 41 39 24 15
5 6 8 11 12 14 15 16 17 18 18 19 18 20 20 22 24 24 25 26 30 29 27 31 31 33 36 36 36 37 35 30 30 41 41 43 43 44 44 44 40 41 31
5 6 9 11 12 14 17 18 17 18 19 19 19 20 21 22 23 24 24 27 33 32 30 31 29 30 30 28 32 34 35 38 38 34 29 41 44 42 44 44 43 40 38
2 5 7 9 12 14 16 17 17 18 19 20 20 19 19 24 25 26 28 29 30 36 30 30 28 29 31 30 25 22 24 30 38 38 36 36 33 40 47 45 45 42 39
2 2 7 9 12 14 15 16 16 18 20 20 20 21 22 23 25 29 29 31 29 31 31 34 29 29 28 29 28 28 31 26 32 35 35 32 33 35 37 48 41 41 42
1 3 5 9 12 13 13 14 15 18 19 21 22 21 23 25 26 26 29 32 32 32 31 29 30 26 30 26 22 31 33 32 31 35 30 31 30 31 33 35 41 41 46
1 4 6 9 11 12 12 14 15 17 19 19 21 20 24 26 28 30 32 32 31 33 34 32 29 30 25 26 33 31 33 33 30 35 33 34 33 37 38 32 28 38 45
2 4 6 9 10 12 13 13 15 17 19 20 20 23 24 26 27 30 32 33 33 32 33 31 33 33 27 27 29 35 37 33 27 32 30 32 32 32 38 30 32 36 35
4 4 6 9 10 12 13 14 16 18 18 19 21 23 25 27 29 31 32 34 35 34 33 34 32 30 31 30 36 39 38 32 28 26 32 26 29 26 23 32 30 35 37
2 4 6 8 10 11 13 15 16 16 17 18 21 23 25 26 28 30 30 32 33 37 38 35 34 34 35 36 38 37 34 32 29 26 25 29 27 26 27 30 27 31 28
5 4 4 6 8 10 12 14 15 16 16 19 21 23 25 27 29 30 30 33 32 34 35 36 36 35 37 38 39 38 36 30 28 26 25 25 24 26 27 28 25 22 25
5 4 3 4 6 9 11 13 14 14 17 19 21 24 26 27 28 29 33 32 33 31 32 33 33 35 35 35 36 37 35 34 32 29 29 27 24 25 28 28 24 25 23
4 3 1 4 7 8 11 12 14 15 17 20 22 23 24 27 27 31 31 32 31 30 31 32 32 30 31 34 35 36 33 30 32 31 30 27 29 30 31 27 24 22 31
2 2 2 6 6 8 9 11 13 15 17 20 21 23 24 23 28 30 32 31 30 30 30 31 32 32 32 32 35 35 35 36 33 30 31 31 33 33 25 29 32 31 30
3 3 4 4 6 7 8 10 12 14 17 18 20 21 22 26 26 29 30 29 29 28 30 30 30 34 36 36 35 36 35 34 31 31 32 32 29 38 35 29 34 33 32
4 4 2 4 6 7 8 9 11 13 15 17 18 19 21 25 25 27 27 29 29 29 30 30 30 33 34 34 40 41 41 34 29 28 27 31 32 27 29 26 25 24 23
5 3 2 3 4 6 7 9 11 12 14 16 17 18 20 22 23 25 27 28 28 32 32 30 31 33 34 40 44 43 39 33 26 26 23 20 19 21 24 22 24 24 22
6 3 3 2 3 5 7 8 10 12 13 15 16 17 17 21 22 24 25 28 29 32 32 33 36 37 38 42 43 45 41 42 35 24 21 21 21 20 22 22 23 23 22

GFSMW_925_spd_264.txt.gz
Wind_Speed
14 23 28 28 29 33 36 37 38 38 37 38 28 26 24 24 27 27 24 25 24 23 24 15 14 13 18 29 35 36 32 35 35 28 30 33 38 40 42 42 43 46 47
8 16 24 28 29 30 32 34 34 35 36 37 30 22 23 24 27 30 30 29 29 29 24 24 24 23 20 18 17 23 28 32 32 23 19 10 24 33 38 41 46 51 52
10 10 18 24 27 27 29 31 32 34 33 31 29 28 24 25 29 34 33 32 31 28 31 31 27 26 26 25 25 24 23 22 29 30 20 5 10 16 26 33 40 42 44
11 14 17 21 22 22 22 26 29 29 30 31 31 31 30 23 25 28 30 31 32 33 34 33 32 30 30 26 25 27 27 25 18 25 33 37 30 12 16 31 34 31 32
13 11 18 19 17 17 18 21 24 27 27 28 29 30 30 29 29 31 33 34 34 34 35 34 32 31 30 28 27 29 27 25 23 23 27 28 30 31 16 16 21 34 38
12 16 19 18 16 15 15 16 20 22 22 25 26 28 29 30 32 34 35 35 36 36 38 38 33 32 30 28 28 27 23 24 26 26 26 25 21 19 18 14 18 21 38
12 10 15 15 14 13 13 13 16 19 18 19 23 24 26 27 28 29 31 34 34 35 37 38 38 36 34 27 27 27 27 29 31 28 27 23 24 29 27 29 20 16 34
13 12 19 18 15 13 12 12 14 17 15 16 18 19 22 26 27 28 28 29 32 34 34 36 36 36 36 33 28 25 24 21 27 28 28 32 31 25 25 22 19 14 18
11 12 20 19 17 15 14 14 14 15 14 11 12 15 19 23 24 26 27 30 32 33 35 35 38 36 35 35 33 28 23 20 21 25 27 28 28 27 26 26 24 15 10
10 11 19 22 19 18 16 15 14 14 14 13 14 12 17 20 22 25 27 29 30 32 34 35 36 35 33 34 33 33 30 22 22 27 29 30 33 32 28 30 28 26 19
13 11 19 23 21 19 17 15 13 12 12 12 15 12 18 21 23 25 27 29 30 31 31 33 33 31 32 31 29 31 29 23 30 31 28 35 36 33 31 28 25 27 26
13 16 21 24 21 18 15 13 11 11 12 10 14 14 18 21 25 27 29 31 32 31 30 30 29 29 30 30 31 30 27 30 32 30 34 33 33 35 31 30 27 32 30
13 13 18 20 20 17 15 13 11 10 10 10 12 15 19 23 25 28 30 31 31 29 29 28 28 29 29 30 27 34 31 30 32 32 32 32 32 32 32 28 31 31 34
16 12 12 19 20 17 16 12 10 9 8 9 13 17 20 23 24 27 29 30 34 29 30 29 30 29 29 27 29 32 33 32 31 31 31 31 27 31 35 36 33 26 29
15 13 11 17 19 17 16 12 10 8 8 10 14 17 19 20 23 26 27 35 32 30 30 32 31 30 28 26 35 36 34 33 35 32 30 28 30 33 32 30 31 31 25
15 14 15 18 18 20 15 12 9 8 9 11 14 16 17 20 22 23 31 29 29 31 32 32 29 29 28 29 34 37 36 33 32 34 33 30 31 30 30 30 35 27 28
16 15 15 19 22 19 15 11 8 8 10 11 12 14 17 19 19 27 26 28 30 31 31 29 29 30 28 31 36 38 36 32 32 33 34 34 29 31 28 33 32 29 26
16 15 20 24 24 19 15 11 9 11 10 11 12 13 16 15 23 24 25 27 29 29 27 27 27 30 28 33 37 40 34 32 33 33 33 34 35 32 33 33 30 30 29
22 24 28 27 23 18 14 12 14 11 11 10 11 12 13 18 20 23 25 26 27 27 25 26 26 29 29 33 38 40 36 33 32 32 33 34 35 35 36 35 33 32 32
27 30 28 27 23 18 15 15 12 11 10 9 10 9 14 16 18 20 23 24 25 23 24 25 25 26 28 32 36 40 35 33 35 34 34 32 33 37 36 33 32 32 33
29 30 29 27 22 19 16 16 12 11 8 7 6 8 15 16 16 17 21 23 24 23 23 23 26 26 28 30 35 39 34 33 35 33 33 34 39 39 36 34 35 34 39
26 30 29 26 22 19 17 15 13 9 4 6 5 9 13 15 16 17 20 23 24 22 22 24 27 26 28 30 35 37 35 35 32 31 33 35 38 37 35 33 34 36 37
25 31 31 26 21 18 15 16 12 6 4 5 5 7 10 13 15 18 20 22 24 21 21 21 25 27 27 29 34 35 35 36 34 34 32 34 35 35 34 37 35 35 30
27 30 32 27 23 19 16 15 11 5 7 5 3 5 10 13 15 17 18 19 20 24 21 21 23 25 26 29 34 34 32 35 36 36 32 33 33 31 31 33 34 33 30
27 32 29 28 25 22 20 14 8 6 8 5 2 3 9 10 15 16 17 17 15 17 21 21 24 24 25 32 32 33 32 33 36 32 32 35 37 36 37 36 34 33 34
28 27 31 29 26 23 19 12 7 7 7 5 5 3 5 7 12 17 19 15 16 15 17 18 23 27 25 29 31 32 32 32 33 30 30 32 33 32 33 33 33 33 34

GFSMW_925_spd_267.txt.gz
Wind_Speed
13 22 26 28 31 32 34 34 34 33 26 22 20 20 27 32 32 30 29 27 26 27 28 26 24 21 22 20 22 23 20 22 22 22 25 29 31 36 38 39 41 43 46
7 15 23 27 29 29 30 33 34 33 30 27 27 20 17 26 29 29 30 30 29 30 29 28 29 29 27 26 25 25 22 16 22 12 19 7 18 25 29 34 36 39 40
10 9 16 23 25 28 28 29 30 31 32 31 28 24 24 26 32 32 31 30 30 30 30 28 29 28 27 27 27 28 22 19 21 23 10 4 7 17 25 30 32 37 40
7 11 16 20 22 23 24 26 28 30 30 30 32 34 33 27 28 28 29 30 31 32 33 31 29 28 26 26 27 24 24 23 19 25 18 23 21 6 10 21 27 34 39
9 8 16 19 18 19 22 23 25 27 27 29 31 31 30 27 28 29 31 31 30 31 32 32 31 31 29 28 25 26 24 20 17 21 26 25 25 15 8 10 15 27 28
8 13 19 18 17 16 17 19 21 22 23 25 26 28 27 27 29 30 31 31 29 30 31 30 30 29 29 30 29 27 23 26 18 21 19 20 13 22 15 11 16 17 26
12 11 14 17 17 15 15 16 17 17 17 19 22 25 26 25 26 26 27 28 29 29 29 28 29 28 26 26 28 27 27 27 21 18 20 19 20 20 22 22 18 12 33
11 10 17 19 17 15 14 14 15 14 13 15 17 19 21 22 23 23 25 26 27 26 27 28 28 28 27 26 26 23 27 28 19 21 22 27 20 20 21 23 24 14 14
11 11 18 20 18 16 15 14 14 14 13 12 13 16 18 20 21 22 23 25 25 26 27 28 27 26 26 25 24 24 26 25 19 22 28 24 21 26 25 23 22 22 15
10 9 17 21 19 17 16 14 13 14 13 13 12 14 16 19 20 21 23 23 24 26 27 26 25 24 25 25 24 24 24 23 24 26 27 25 27 30 27 26 26 26 27
14 12 17 24 23 21 18 16 14 13 11 11 12 14 17 19 19 21 23 24 27 26 26 25 26 25 27 26 24 22 23 24 26 24 26 27 29 27 28 28 28 29 25
15 15 20 25 25 22 18 16 14 13 11 12 12 13 16 17 19 22 23 28 27 25 26 27 27 27 27 26 23 26 27 28 27 28 28 28 27 27 28 25 30 29 31
14 13 18 20 25 23 19 16 13 12 12 11 11 14 15 17 20 21 26 25 24 26 26 27 28 29 27 23 27 27 28 28 29 29 29 30 29 28 26 29 30 28 27
17 15 14 18 25 24 20 16 14 13 12 10 11 13 15 16 18 22 23 24 24 25 27 27 27 28 25 22 29 31 31 31 30 29 29 30 28 29 31 31 29 27 27
18 16 14 17 23 24 19 16 15 14 12 11 12 13 13 15 18 21 22 24 25 26 27 27 24 29 25 26 34 33 33 33 31 30 31 29 32 34 32 31 32 30 28
19 17 16 20 22 25 22 18 17 16 12 11 12 11 12 14 18 19 21 23 25 26 25 23 24 25 25 30 33 36 34 30 30 32 33 33 33 32 37 34 32 33 32
20 18 18 23 24 28 25 21 20 16 13 12 10 10 11 14 15 17 19 22 24 23 23 22 23 25 23 29 34 38 32 31 31 32 34 35 33 35 35 36 35 33 32
19 18 23 23 30 28 23 23 22 16 14 12 10 9 10 12 13 15 17 19 20 20 21 23 23 25 25 29 33 38 33 30 30 32 33 33 36 35 40 40 36 33 33
26 28 29 33 33 29 25 26 20 17 13 11 9 8 9 9 11 14 16 17 19 20 20 20 23 25 26 28 31 37 33 32 33 33 31 33 35 39 44 39 35 33 33
31 30 34 35 33 28 28 26 21 16 13 11 10 7 7 8 9 11 13 15 17 17 19 20 22 21 23 26 30 36 31 32 34 33 32 32 35 41 41 39 35 31 35
31 32 34 33 34 31 29 25 21 16 13 11 9 7 7 7 8 9 12 15 18 17 21 21 21 24 22 26 31 35 32 32 33 32 34 35 39 39 39 37 32 38 41
29 32 30 31 33 31 28 25 20 16 13 13 10 6 6 7 8 9 10 13 17 19 22 20 22 23 22 23 31 34 32 31 32 31 34 35 38 37 37 35 38 40 34
31 31 31 32 32 31 26 26 21 17 15 14 10 6 5 6 7 9 11 13 14 19 21 18 19 21 22 24 31 30 31 31 34 35 34 34 36 36 36 38 37 34 34
29 30 31 28 29 29 26 23 22 16 15 15 10 6 4 5 8 8 10 12 14 16 18 19 18 21 21 23 30 30 30 30 31 36 33 32 32 32 33 35 36 35 34
29 32 30 28 31 29 25 24 20 17 16 13 10 5 2 2 6 8 9 10 11 11 14 16 18 20 20 25 26 27 30 28 32 29 29 31 35 35 37 38 37 36 38
30 28 28 31 33 31 28 23 19 17 17 14 10 5 3 1 4 7 8 9 10 10 12 12 14 21 20 23 24 26 25 25 26 24 26 29 32 32 34 35 37 36 38